FENGYUN 1C DEB, 29975

Orbit data source: Space-Track

FENGYUN 1C DEB, 29975 is space debris in SSO originally from a launch on Mon, 10 May 1999 UTC launched from the Taiyaun Space Center, China (TSC). Fengyun 1C debris stems from the Chinese weather satellite Fengyun-1C, which was intentionally destroyed by a Chinese anti-satellite missile in 2007. This event dramatically increased the amount of space debris, with thousands of trackable fragments posing hazards to satellites and human spaceflight. The Fengyun 1C debris cloud has become a focal point in discussions about space sustainability and the need for international regulations to prevent the creation of new debris.

Loading next visibility...
Identifier
29975, 1999-025KZ
Orbit
SSO
Country
Flag of CNCN / PRC
Related business
Manufacturer
Unknown
Mission
Spacecraft
Bus & Motor
Unknown
Mass
Unknown
Launch date (UTC)
1999-05-10 (27 years ago)
Launch vehicle
Unknown
Launch site
Taiyaun Space Center, China (TSC)
Object type
Payload
Rocket body
Debris
Shape & HBR
Unknown shape, 0.1 m
Radar Cross Section
Medium (>0.1 m² and <1 m²)

Expand to show TLE details & history
Last TLE update: 11 hours ago

TLE from 11 hours ago
0 FENGYUN 1C DEB
1 29975U 99025KZ  26236.60390428  .00000383  00000-0  28498-3 0  9996
2 29975  99.3068 286.6414 0114324  38.8484 124.0902 13.98129952999981
Epoch: 2026-08-24T14:29Z
TLE epoch observation values (Epoch: 2026-08-24T14:29:37.329Z)
Latitude
15.74951°
Longitude
-81.01219°
Altitude
949.763 km
Speed
7.354 km/s
True Right ascension
07h 17m 06s
True Declination
15° 39' 44"
Sunlit
Object was in daylight at epoch
Visualization orbit readout
Latitude
Unknown
Longitude
Unknown
Altitude
Unknown
Speed
Unknown
Apparent Right ascension
Unknown
Apparent Declination
Unknown
Sunlit
N/A
Visualization observer readout
Local Sidereal Time
17:07:31
Azimuth
Unknown
Elevation
Unknown
Doppler factor
Unknown
Orbital elements
Apogee altitude
980.673 km
Perigee altitude
814.317 km
Semi-major axis
7,275.632 km
Eccentricity
0.01143
Inclination
99.3068°
RAAN
286.6414°
Arg. of periapsis
38.8484°
True anomaly
125.16644°
Mean anomaly
124.0902°
Eccentric anomaly
124.62919°
Mean motion
3.49733 °/min
Orbital period
102.94 mins
BSTAR
0.00028498
Loading maneuver chart data...
Computing Atmospheric mass density...
Loading historical data...
Loading historical data...
Loading historical data...
Loading historical data...
Loading historical data...
Loading historical data...
Loading historical data...

Documentation

Showing up to 5 results
|